Time,TemperatureF,DewpointF,PressureIn,WindDirection,WindDirectionDegrees,WindSpeedMPH,WindSpeedGustMPH,Humidity,HourlyPrecipIn,Conditions,Clouds,dailyrainin,SoftwareType,DateUTC
2013-04-23 00:11:00,22.8,20.0,30.33,NE,44,2.0,3.0,90,0.00,,,0.00,weatherlink.com 1.10,2013-04-23 06:11:00,
2013-04-23 00:26:00,22.8,20.0,30.34,NE,45,1.0,4.0,90,0.00,,,0.00,weatherlink.com 1.10,2013-04-23 06:26:00,
2013-04-23 00:41:00,22.8,20.0,30.33,East,80,0.0,3.0,90,0.00,,,0.00,weatherlink.com 1.10,2013-04-23 06:41:00,
2013-04-23 00:56:00,22.5,20.0,30.32,East,82,1.0,5.0,89,0.00,,,0.00,weatherlink.com 1.10,2013-04-23 06:56:00,
2013-04-23 01:11:00,22.5,20.0,30.32,NE,38,0.0,2.0,90,0.00,,,0.00,weatherlink.com 1.10,2013-04-23 07:11:00,
2013-04-23 01:26:00,22.9,21.0,30.32,NE,38,1.0,1.0,91,0.00,,,0.00,weatherlink.com 1.10,2013-04-23 07:26:00,
2013-04-23 01:41:00,22.4,20.0,30.32,ENE,73,0.0,2.0,89,0.00,,,0.00,weatherlink.com 1.10,2013-04-23 07:41:00,
2013-04-23 01:56:00,22.4,20.0,30.32,ENE,73,0.0,1.0,90,0.00,,,0.00,weatherlink.com 1.10,2013-04-23 07:56:00,
2013-04-23 02:11:00,22.4,20.0,30.32,ENE,67,1.0,2.0,90,0.00,,,0.00,weatherlink.com 1.10,2013-04-23 08:11:00,
2013-04-23 02:26:00,22.2,20.0,30.32,East,86,0.0,2.0,89,0.00,,,0.00,weatherlink.com 1.10,2013-04-23 08:26:00,
2013-04-23 02:41:00,22.0,19.0,30.30,ESE,117,1.0,3.0,89,0.00,,,0.00,weatherlink.com 1.10,2013-04-23 08:41:00,
2013-04-23 02:56:00,21.7,19.0,30.30,East,90,0.0,5.0,89,0.00,,,0.00,weatherlink.com 1.10,2013-04-23 08:56:00,
2013-04-23 03:11:00,21.5,19.0,30.30,East,90,0.0,3.0,89,0.00,,,0.00,weatherlink.com 1.10,2013-04-23 09:11:00,
2013-04-23 03:26:00,21.5,19.0,30.30,East,90,0.0,0.0,89,0.00,,,0.00,weatherlink.com 1.10,2013-04-23 09:26:00,
2013-04-23 03:41:00,21.5,19.0,30.31,East,90,0.0,0.0,89,0.00,,,0.00,weatherlink.com 1.10,2013-04-23 09:41:00,
2013-04-23 03:56:00,21.5,19.0,30.30,East,90,0.0,0.0,89,0.00,,,0.00,weatherlink.com 1.10,2013-04-23 09:56:00,
2013-04-23 04:11:00,21.7,19.0,30.31,East,90,0.0,0.0,90,0.00,,,0.00,weatherlink.com 1.10,2013-04-23 10:11:00,
2013-04-23 04:26:00,21.4,19.0,30.32,ESE,115,0.0,5.0,89,0.00,,,0.00,weatherlink.com 1.10,2013-04-23 10:26:00,
2013-04-23 04:41:00,21.3,19.0,30.31,ESE,115,1.0,3.0,89,0.00,,,0.00,weatherlink.com 1.10,2013-04-23 10:41:00,
2013-04-23 04:56:00,21.0,18.0,30.30,ESE,109,1.0,4.0,89,0.00,,,0.00,weatherlink.com 1.10,2013-04-23 10:56:00,
2013-04-23 05:11:00,20.8,18.0,30.32,East,97,0.0,2.0,89,0.00,,,0.00,weatherlink.com 1.10,2013-04-23 11:11:00,
2013-04-23 05:26:00,20.9,18.0,30.32,East,97,0.0,2.0,89,0.00,,,0.00,weatherlink.com 1.10,2013-04-23 11:26:00,
2013-04-23 05:41:00,21.0,19.0,30.32,East,97,0.0,1.0,90,0.00,,,0.00,weatherlink.com 1.10,2013-04-23 11:41:00,
2013-04-23 05:56:00,20.9,18.0,30.33,East,92,0.0,2.0,89,0.00,,,0.00,weatherlink.com 1.10,2013-04-23 11:56:00,
2013-04-23 06:11:00,20.8,18.0,30.33,East,88,0.0,3.0,89,0.00,,,0.00,weatherlink.com 1.10,2013-04-23 12:11:00,
2013-04-23 06:26:00,20.9,18.0,30.33,East,80,3.0,5.0,89,0.00,,,0.00,weatherlink.com 1.10,2013-04-23 12:26:00,
2013-04-23 06:41:00,20.6,18.0,30.35,NE,36,1.0,4.0,88,0.00,,,0.00,weatherlink.com 1.10,2013-04-23 12:41:00,
2013-04-23 06:56:00,20.6,18.0,30.36,NE,36,0.0,4.0,89,0.00,,,0.00,weatherlink.com 1.10,2013-04-23 12:56:00,
2013-04-23 07:11:00,20.5,18.0,30.37,NE,42,0.0,3.0,88,0.00,,,0.00,weatherlink.com 1.10,2013-04-23 13:11:00,
2013-04-23 07:26:00,20.7,18.0,30.37,ENE,78,1.0,3.0,88,0.00,,,0.00,weatherlink.com 1.10,2013-04-23 13:26:00,
2013-04-23 07:41:00,20.9,18.0,30.38,NE,38,3.0,3.0,89,0.00,,,0.00,weatherlink.com 1.10,2013-04-23 13:41:00,
2013-04-23 07:56:00,21.2,18.0,30.37,East,82,2.0,3.0,88,0.00,,,0.00,weatherlink.com 1.10,2013-04-23 13:56:00,
2013-04-23 08:11:00,20.9,18.0,30.38,NE,47,1.0,3.0,88,0.00,,,0.00,weatherlink.com 1.10,2013-04-23 14:11:00,
2013-04-23 08:27:00,21.0,18.0,30.38,NE,48,1.0,4.0,88,0.00,,,0.00,weatherlink.com 1.10,2013-04-23 14:27:00,
2013-04-23 08:42:00,21.6,19.0,30.39,ENE,65,0.0,2.0,88,0.00,,,0.00,weatherlink.com 1.10,2013-04-23 14:42:00,
2013-04-23 08:57:00,21.8,19.0,30.38,ENE,61,0.0,3.0,88,0.00,,,0.00,weatherlink.com 1.10,2013-04-23 14:57:00,
2013-04-23 09:12:00,21.3,18.0,30.39,NE,40,1.0,5.0,87,0.00,,,0.00,weatherlink.com 1.10,2013-04-23 15:12:00,
2013-04-23 09:27:00,21.1,18.0,30.39,NE,34,6.0,6.0,87,0.00,,,0.00,weatherlink.com 1.10,2013-04-23 15:27:00,
2013-04-23 09:42:00,20.9,18.0,30.39,NE,42,2.0,6.0,87,0.00,,,0.00,weatherlink.com 1.10,2013-04-23 15:42:00,
2013-04-23 09:57:00,20.8,17.0,30.40,NNE,29,3.0,5.0,86,0.00,,,0.00,weatherlink.com 1.10,2013-04-23 15:57:00,
2013-04-23 10:12:00,20.6,17.0,30.41,NNE,32,0.0,5.0,86,0.00,,,0.00,weatherlink.com 1.10,2013-04-23 16:12:00,
2013-04-23 10:27:00,20.7,17.0,30.41,NE,36,2.0,4.0,85,0.00,,,0.00,weatherlink.com 1.10,2013-04-23 16:27:00,
2013-04-23 10:42:00,21.1,18.0,30.41,ENE,58,1.0,3.0,86,0.00,,,0.00,weatherlink.com 1.10,2013-04-23 16:42:00,
2013-04-23 10:57:00,21.5,17.0,30.41,NE,36,3.0,4.0,84,0.00,,,0.00,weatherlink.com 1.10,2013-04-23 16:57:00,
2013-04-23 11:12:00,22.2,18.0,30.42,East,85,2.0,3.0,84,0.00,,,0.00,weatherlink.com 1.10,2013-04-23 17:12:00,
2013-04-23 11:27:00,22.5,18.0,30.42,NE,37,1.0,3.0,81,0.00,,,0.00,weatherlink.com 1.10,2013-04-23 17:27:00,
2013-04-23 11:42:00,23.5,18.0,30.41,SE,128,2.0,3.0,80,0.00,,,0.00,weatherlink.com 1.10,2013-04-23 17:42:00,
2013-04-23 11:57:00,24.3,18.0,30.41,ESE,112,1.0,6.0,76,0.00,,,0.00,weatherlink.com 1.10,2013-04-23 17:57:00,
2013-04-23 12:12:00,25.5,19.0,30.41,NE,34,0.0,4.0,75,0.00,,,0.00,weatherlink.com 1.10,2013-04-23 18:12:00,
2013-04-23 12:27:00,26.8,20.0,30.40,East,89,1.0,5.0,74,0.00,,,0.00,weatherlink.com 1.10,2013-04-23 18:27:00,
2013-04-23 12:42:00,27.2,19.0,30.39,NE,38,2.0,4.0,70,0.00,,,0.00,weatherlink.com 1.10,2013-04-23 18:42:00,
2013-04-23 12:57:00,25.5,19.0,30.39,NW,306,4.0,7.0,77,0.00,,,0.00,weatherlink.com 1.10,2013-04-23 18:57:00,
2013-04-23 13:12:00,25.1,18.0,30.38,NW,309,0.0,6.0,75,0.00,,,0.00,weatherlink.com 1.10,2013-04-23 19:12:00,
2013-04-23 13:27:00,26.0,18.0,30.37,WNW,300,3.0,5.0,71,0.00,,,0.00,weatherlink.com 1.10,2013-04-23 19:27:00,
2013-04-23 13:42:00,27.4,19.0,30.37,NNW,341,1.0,4.0,71,0.00,,,0.00,weatherlink.com 1.10,2013-04-23 19:42:00,
2013-04-23 13:57:00,27.9,19.0,30.36,North,9,0.0,3.0,69,0.00,,,0.00,weatherlink.com 1.10,2013-04-23 19:57:00,
2013-04-23 14:11:00,27.9,18.0,30.36,East,100,1.0,3.0,66,0.00,,,0.00,weatherlink.com 1.10,2013-04-23 20:11:00,
2013-04-23 14:27:00,27.6,18.0,30.36,ENE,74,0.0,3.0,67,0.00,,,0.00,weatherlink.com 1.10,2013-04-23 20:27:00,
2013-04-23 14:42:00,29.1,18.0,30.36,WSW,252,1.0,6.0,63,0.00,,,0.00,weatherlink.com 1.10,2013-04-23 20:42:00,
2013-04-23 14:57:00,29.0,18.0,30.36,NW,304,2.0,6.0,63,0.00,,,0.00,weatherlink.com 1.10,2013-04-23 20:57:00,
2013-04-23 15:12:00,30.1,20.0,30.36,East,88,1.0,3.0,66,0.00,,,0.00,weatherlink.com 1.10,2013-04-23 21:12:00,
2013-04-23 15:27:00,30.1,19.0,30.35,NE,45,0.0,4.0,63,0.00,,,0.00,weatherlink.com 1.10,2013-04-23 21:27:00,
2013-04-23 15:42:00,30.0,19.0,30.34,ENE,78,0.0,2.0,63,0.00,,,0.00,weatherlink.com 1.10,2013-04-23 21:42:00,
2013-04-23 15:57:00,30.5,18.0,30.34,WNW,288,3.0,4.0,60,0.00,,,0.00,weatherlink.com 1.10,2013-04-23 21:57:00,
2013-04-23 16:12:00,31.5,19.0,30.34,WSW,255,3.0,4.0,61,0.00,,,0.00,weatherlink.com 1.10,2013-04-23 22:12:00,
2013-04-23 16:27:00,31.6,19.0,30.33,WSW,256,1.0,3.0,60,0.00,,,0.00,weatherlink.com 1.10,2013-04-23 22:27:00,
2013-04-23 16:42:00,31.9,18.0,30.34,West,267,0.0,4.0,56,0.00,,,0.00,weatherlink.com 1.10,2013-04-23 22:42:00,
2013-04-23 16:57:00,32.6,17.0,30.33,NW,306,0.0,4.0,53,0.00,,,0.00,weatherlink.com 1.10,2013-04-23 22:57:00,
2013-04-23 17:12:00,32.2,18.0,30.33,SSW,194,1.0,3.0,57,0.00,,,0.00,weatherlink.com 1.10,2013-04-23 23:12:00,
2013-04-23 17:28:00,32.1,18.0,30.34,SW,234,1.0,5.0,56,0.00,,,0.00,weatherlink.com 1.10,2013-04-23 23:28:00,
2013-04-23 17:43:00,32.8,19.0,30.34,WNW,288,0.0,3.0,58,0.00,,,0.00,weatherlink.com 1.10,2013-04-23 23:43:00,
2013-04-23 17:58:00,33.5,18.0,30.34,West,263,2.0,3.0,53,0.00,,,0.00,weatherlink.com 1.10,2013-04-23 23:58:00,
2013-04-23 18:13:00,33.3,18.0,30.34,WSW,243,0.0,4.0,53,0.00,,,0.00,weatherlink.com 1.10,2013-04-24 00:13:00,
2013-04-23 18:28:00,32.8,17.0,30.34,West,265,1.0,5.0,53,0.00,,,0.00,weatherlink.com 1.10,2013-04-24 00:28:00,
2013-04-23 18:43:00,32.4,18.0,30.34,SW,215,1.0,5.0,55,0.00,,,0.00,weatherlink.com 1.10,2013-04-24 00:43:00,
2013-04-23 18:58:00,31.9,17.0,30.34,SW,221,1.0,4.0,55,0.00,,,0.00,weatherlink.com 1.10,2013-04-24 00:58:00,
2013-04-23 19:13:00,31.3,17.0,30.35,SW,231,2.0,3.0,55,0.00,,,0.00,weatherlink.com 1.10,2013-04-24 01:13:00,
2013-04-23 19:28:00,30.7,17.0,30.35,WSW,252,1.0,4.0,58,0.00,,,0.00,weatherlink.com 1.10,2013-04-24 01:28:00,
2013-04-23 19:43:00,30.1,17.0,30.36,WSW,245,0.0,3.0,58,0.00,,,0.00,weatherlink.com 1.10,2013-04-24 01:43:00,
2013-04-23 19:58:00,29.6,18.0,30.36,WSW,240,0.0,2.0,62,0.00,,,0.00,weatherlink.com 1.10,2013-04-24 01:58:00,
2013-04-23 20:13:00,29.2,17.0,30.36,WSW,238,0.0,3.0,61,0.00,,,0.00,weatherlink.com 1.10,2013-04-24 02:13:00,
2013-04-23 20:28:00,28.8,18.0,30.37,SW,215,1.0,4.0,63,0.00,,,0.00,weatherlink.com 1.10,2013-04-24 02:28:00,
2013-04-23 20:58:00,28.2,18.0,30.37,SW,215,2.0,3.0,66,0.00,,,0.00,weatherlink.com 1.10,2013-04-24 02:58:00,
2013-04-23 21:28:00,27.3,17.0,30.38,SSW,202,0.0,3.0,66,0.00,,,0.00,weatherlink.com 1.10,2013-04-24 03:28:00,
2013-04-23 21:43:00,26.7,17.0,30.38,SSW,201,0.0,2.0,67,0.00,,,0.00,weatherlink.com 1.10,2013-04-24 03:43:00,
2013-04-23 21:58:00,26.1,17.0,30.38,SSW,196,0.0,4.0,68,0.00,,,0.00,weatherlink.com 1.10,2013-04-24 03:58:00,
2013-04-23 22:13:00,26.0,17.0,30.38,SSW,205,0.0,3.0,68,0.00,,,0.00,weatherlink.com 1.10,2013-04-24 04:13:00,
2013-04-23 22:28:00,26.0,17.0,30.38,SW,221,2.0,3.0,69,0.00,,,0.00,weatherlink.com 1.10,2013-04-24 04:28:00,
2013-04-23 22:43:00,25.8,17.0,30.38,SSW,211,0.0,0.0,69,0.00,,,0.00,weatherlink.com 1.10,2013-04-24 04:43:00,
2013-04-23 22:58:00,25.8,17.0,30.38,SSW,204,1.0,5.0,68,0.00,,,0.00,weatherlink.com 1.10,2013-04-24 04:58:00,
2013-04-23 23:13:00,25.9,16.0,30.37,SSW,192,0.0,4.0,67,0.00,,,0.00,weatherlink.com 1.10,2013-04-24 05:13:00,
2013-04-23 23:28:00,25.1,16.0,30.36,SSW,192,1.0,3.0,69,0.00,,,0.00,weatherlink.com 1.10,2013-04-24 05:28:00,
2013-04-23 23:43:00,24.6,16.0,30.36,SSW,192,1.0,3.0,70,0.00,,,0.00,weatherlink.com 1.10,2013-04-24 05:43:00,
2013-04-23 23:58:00,24.2,16.0,30.36,SSW,195,1.0,3.0,71,0.00,,,0.00,weatherlink.com 1.10,2013-04-24 05:58:00,